Regional Weather Roundup
Issued by NWS

Home | Current Version | Previous Version | Text Only | Print | Product List | Glossary On
Versions: 1 2 3 4 5 6 7 8 9 10 11 12 13 14 15 16 17 18 19 20 21 22 23 24 25 26 27 28 29 30 31 32 33 34 35 36 37 38 39 40 41 42 43 44 45 46 47 48 49 50
189
ASUS43 KFSD 212202
RWRSD

WEATHER ROUNDUP FOR SOUTH DAKOTA
NATIONAL WEATHER SERVICE SIOUX FALLS SD
400 PM CST WED FEB 21 2018

NOTE: "FAIR" INDICATES FEW OR NO CLOUDS BELOW 12,000 FEET WITH NO
SIGNIFICANT WEATHER AND/OR OBSTRUCTIONS TO VISIBILITY.


SDZ001>005-009-010-012>017-212300-
NORTHWEST AND NORTH CENTRAL SOUTH DAKOTA

CITY           SKY/WX    TMP DP  RH WIND       PRES   REMARKS
BUFFALO          N/A      7  -5  57 NE8       30.16S WCI  -6
FAITH            N/A      4  -4  69 E7        30.29F WCI  -8
MOBRIDGE       FAIR       9  -1  64 SE13      30.41S WCI  -7
$$

SDZ012>016-024>037-041>051-057-063-072>074-212300-
SOUTHWEST AND SOUTH CENTRAL SOUTH DAKOTA

CITY           SKY/WX    TMP DP  RH WIND       PRES   REMARKS
RAPID CTY ARPT FAIR       8   1  73 SE13      30.19F WCI  -8
PIERRE         FAIR       6  -1  73 SE10      30.40F WCI  -9
CUSTER         FAIR      19  -1  41 W10G20    30.05S WCI   7
ELLSWORTH AFB  FAIR      11   1  63 S8        30.17F WCI  -1
PHILIP         FAIR       9   0  67 N7        30.31F WCI  -2
PINE RIDGE     FAIR      27  13  55 S10       30.23F WCI  17
SPEARFISH        N/A     19   0  42 SE5       30.14S WCI  13
WINNER         FAIR      25  10  53 S14       30.39F WCI  13
$$

SDZ004>011-016>023-039-040-212300-
NORTHEAST SOUTH DAKOTA

CITY           SKY/WX    TMP DP  RH WIND       PRES   REMARKS
ABERDEEN       FAIR      11   1  64 S9        30.53F WCI  -2
WATERTOWN      FAIR      15   3  59 SW8       30.49F WCI   4
BROOKINGS      FAIR      17   2  51 SW9       30.53F WCI   6
SISSETON         N/A     18   1  47 SW9       30.55S WCI   7
$$

SDZ017-020-022-023-036>040-048>070-212300-
SOUTHEAST SOUTH DAKOTA

CITY           SKY/WX    TMP DP  RH WIND       PRES   REMARKS
SIOUX FALLS    PTSUNNY   17   2  51 S3        30.55F
HURON          FAIR      18   2  49 S14       30.52F WCI   4
CHAMBERLAIN    FAIR      23   9  55 SE12      30.44F WCI  12
MITCHELL       FAIR      19   4  51 SE12      30.54F WCI   7
YANKTON        FAIR      18   6  59 SE10      30.56F WCI   6
$$

ABBREVIATIONS USED IN REMARKS
   TC - TEMPERATURE IN CELSIUS
  WCI - WIND CHILL INDEX
   HX - HEAT INDEX
  VSB - VISIBILITY





USA.gov is the U.S. government's official web portal to all federal, state and local government web resources and services.